Hazlehurst, GA

4:18 AM EST on December 11, 2019 (GMT -0500)
Hazlehurst

Weather History for KAZE - August, 2019

Change the Weather History Date:

Monday, August 12, 2019

  Actual Average Record
Temperature  
Mean Temperature 86 °F -  
Max Temperature 97 °F 94 °F 97 °F (2019)
Min Temperature 77 °F 69 °F 74 °F (2018)
Cooling Degree Days 22    
Growing Degree Days 36 (Base 50)    
Moisture  
Dew Point 74 °F    
Average Humidity 71    
Maximum Humidity 89    
Minimum Humidity 39    
Precipitation  
Precipitation 0.00 in - - ()
Sea Level Pressure  
Sea Level Pressure 29.93 in    
Wind  
Wind Speed 1 mph (ESE)    
Max Wind Speed 9 mph    
Max Gust Speed 20 mph    
Visibility 10 miles    
Events Rain    
Averages and records for this station are not official NWS values.
T = Trace of Precipitation, MM = Missing Value Source: NWS Daily Summary

Daily Weather History Graph

Daily Weather History Graph

Search for Another Location

Airport or City:

Astronomy

Aug. 12, 2019 Rise Set
Actual Time 6:53 AM EDT 8:17 PM EDT
Civil Twilight 6:27 AM EDT 8:43 PM EDT
Nautical Twilight 5:56 AM EDT 9:14 PM EDT
Astronomical Twilight 5:24 AM EDT 9:46 PM EDT
Moon 6:38 PM EDT (8/12) 4:09 AM EDT (8/12)
Length of Visible Light 14h 16m
Length of Day
13h 24m
Waxing Gibbous, 93% of the Moon is Illuminated
Aug 12
Waxing Gibbous
Aug 15
Full
Aug 23
Last Quarter
Aug 30
New
Sep 5
First Quarter

Hourly Weather History & Observations

Time (EDT) Temp. Heat Index Dew Point Humidity Pressure Visibility Wind Dir Wind Speed Gust Speed Precip Events Conditions
12:10 AM 81.1 °F 87.0 °F 74.7 °F 81% 29.94 in 10.0 mi Calm Calm - N/A   Clear
12:30 AM 81.0 °F 86.5 °F 74.7 °F 81% 29.94 in 10.0 mi Calm Calm - N/A   Clear
12:55 AM 80.8 °F 86.3 °F 74.8 °F 82% 29.94 in 10.0 mi Calm Calm - N/A   Clear
1:10 AM 80.6 °F 85.9 °F 74.7 °F 82% 29.94 in 10.0 mi Calm Calm - N/A   Clear
1:30 AM 80.1 °F 84.8 °F 74.7 °F 83% 29.94 in 10.0 mi Calm Calm - N/A   Clear
1:50 AM 79.9 °F - 74.5 °F 83% 29.94 in 10.0 mi Calm Calm - N/A   Clear
2:10 AM 79.7 °F - 74.3 °F 83% 29.93 in 10.0 mi Calm Calm - N/A   Clear
2:30 AM 79.7 °F - 74.3 °F 83% 29.92 in 10.0 mi Calm Calm - N/A   Clear
2:50 AM 79.7 °F - 74.3 °F 83% 29.92 in 10.0 mi Calm Calm - N/A   Clear
3:10 AM 78.8 °F - 74.1 °F 85% 29.92 in 10.0 mi Calm Calm - N/A   Clear
3:30 AM 78.1 °F - 73.8 °F 86% 29.92 in 10.0 mi Calm Calm - N/A   Clear
3:50 AM 77.9 °F - 73.8 °F 87% 29.91 in 10.0 mi Calm Calm - N/A   Clear
4:10 AM 77.9 °F - 73.8 °F 87% 29.91 in 10.0 mi Calm Calm - N/A   Clear
4:30 AM 77.9 °F - 73.8 °F 87% 29.91 in 10.0 mi Calm Calm - N/A   Clear
4:50 AM 77.5 °F - 73.6 °F 88% 29.91 in 10.0 mi Calm Calm - N/A   Clear
5:10 AM 77.5 °F - 73.6 °F 88% 29.91 in 10.0 mi Calm Calm - N/A   Clear
5:30 AM 77.5 °F - 73.6 °F 88% 29.92 in 10.0 mi Calm Calm - N/A   Clear
5:50 AM 77.2 °F - 73.4 °F 88% 29.92 in 7.0 mi Calm Calm - N/A   Clear
6:10 AM 77.0 °F - 73.4 °F 89% 29.92 in 7.0 mi Calm Calm - N/A   Clear
6:30 AM 77.0 °F - 73.4 °F 89% 29.93 in 7.0 mi Calm Calm - N/A   Clear
6:50 AM 77.2 °F - 73.6 °F 89% 29.94 in 7.0 mi Calm Calm - N/A   Clear
7:10 AM 77.2 °F - 73.4 °F 88% 29.95 in 7.0 mi Calm Calm - N/A   Clear
7:30 AM 77.7 °F - 73.8 °F 88% 29.95 in 10.0 mi Calm Calm - N/A   Clear
7:50 AM 78.4 °F - 74.1 °F 87% 29.96 in 10.0 mi Calm Calm - N/A   Clear
8:10 AM 79.9 °F - 74.1 °F 82% 29.96 in 10.0 mi East 3.5 mph - N/A   Clear
8:30 AM 81.7 °F 87.6 °F 74.1 °F 78% 29.97 in 10.0 mi ESE 3.5 mph - N/A   Clear
8:50 AM 83.3 °F 89.9 °F 73.8 °F 73% 29.97 in 10.0 mi East 3.5 mph - N/A   Clear
9:10 AM 84.9 °F 92.1 °F 73.8 °F 69% 29.97 in 10.0 mi East 4.6 mph - N/A   Clear
9:30 AM 85.5 °F 92.6 °F 73.4 °F 67% 29.97 in 10.0 mi East 3.5 mph - N/A   Clear
9:50 AM 86.9 °F 94.5 °F 73.6 °F 64% 29.97 in 10.0 mi ESE 5.8 mph - N/A   Clear
10:10 AM 87.8 °F 96.1 °F 73.6 °F 63% 29.98 in 10.0 mi ESE 5.8 mph - N/A   Clear
10:30 AM 88.9 °F 97.1 °F 73.6 °F 60% 29.98 in 10.0 mi ESE 3.5 mph - N/A   Clear
10:50 AM 89.2 °F 98.4 °F 74.1 °F 61% 29.97 in 7.0 mi Calm Calm - N/A   Clear
11:15 AM 90.7 °F 100.1 °F 74.3 °F 58% 29.97 in 10.0 mi East 4.6 mph - N/A   Clear
11:50 AM 90.9 °F 99.4 °F 73.2 °F 56% 29.97 in 10.0 mi East 4.6 mph - N/A   Scattered Clouds
12:10 PM 91.8 °F 100.9 °F 73.6 °F 55% 29.98 in 10.0 mi ENE 5.8 mph - N/A   Scattered Clouds
12:30 PM 92.5 °F 101.3 °F 73.2 °F 53% 29.97 in 10.0 mi ESE 6.9 mph - N/A   Scattered Clouds
12:50 PM 91.2 °F 100.2 °F 73.6 °F 56% 29.97 in 10.0 mi SE 3.5 mph - N/A   Mostly Cloudy
1:10 PM 93.6 °F 101.9 °F 72.5 °F 50% 29.96 in 10.0 mi East 3.5 mph - N/A   Mostly Cloudy
1:30 PM 92.3 °F 99.7 °F 72.0 °F 51% 29.95 in 10.0 mi ENE 4.6 mph - N/A   Mostly Cloudy
1:50 PM 92.3 °F 99.7 °F 72.0 °F 51% 29.95 in 10.0 mi East 3.5 mph - N/A   Mostly Cloudy
2:10 PM 88.9 °F 100.9 °F 76.5 °F 67% 29.94 in 4.0 mi WNW 3.5 mph - N/A Rain Rain
2:30 PM 86.5 °F 98.3 °F 77.4 °F 74% 29.94 in 5.0 mi Calm Calm - N/A Rain Light Rain
2:50 PM 91.2 °F 102.7 °F 75.6 °F 60% 29.93 in 10.0 mi Calm Calm - N/A   Scattered Clouds
3:10 PM 93.2 °F 105.0 °F 75.6 °F 56% 29.92 in 10.0 mi Calm Calm - N/A   Scattered Clouds
3:30 PM 94.6 °F 104.4 °F 73.4 °F 50% 29.92 in 10.0 mi Calm Calm - N/A   Clear
3:50 PM 95.2 °F 103.6 °F 72.1 °F 47% 29.90 in 10.0 mi Calm Calm - N/A   Mostly Cloudy
4:10 PM 96.1 °F 102.3 °F 69.8 °F 42% 29.90 in 10.0 mi ESE 4.6 mph - N/A   Scattered Clouds
4:30 PM 96.6 °F 101.5 °F 68.0 °F 39% 29.89 in 10.0 mi Calm Calm - N/A   Clear
4:50 PM 96.1 °F 102.9 °F 70.2 °F 43% 29.89 in 10.0 mi ENE 3.5 mph - N/A   Clear
5:10 PM 95.9 °F 100.7 °F 68.4 °F 40% 29.88 in 10.0 mi ENE 6.9 mph - N/A   Scattered Clouds
5:30 PM 94.8 °F 101.5 °F 70.5 °F 45% 29.89 in 10.0 mi East 5.8 mph - N/A   Mostly Cloudy
5:50 PM 91.9 °F 100.1 °F 72.7 °F 53% 29.89 in 10.0 mi ESE 9.2 mph 19.6 mph N/A   Mostly Cloudy
6:10 PM 84.7 °F 93.2 °F 75.2 °F 73% 29.89 in 10.0 mi ESE 4.6 mph - N/A Rain Light Rain
6:30 PM 85.5 °F 93.8 °F 74.8 °F 70% 29.89 in 10.0 mi SE 4.6 mph - N/A   Scattered Clouds
6:50 PM 86.2 °F 95.1 °F 75.0 °F 69% 29.89 in 10.0 mi Calm Calm - N/A   Clear
7:10 PM 86.2 °F 94.6 °F 74.7 °F 68% 29.90 in 10.0 mi SE 3.5 mph - N/A   Clear
7:35 PM 86.9 °F 94.5 °F 73.6 °F 64% 29.92 in 10.0 mi SE 3.5 mph - N/A   Mostly Cloudy
7:50 PM 86.4 °F 94.2 °F 73.8 °F 66% 29.91 in 10.0 mi ESE 5.8 mph - N/A   Mostly Cloudy
8:10 PM 86.0 °F 94.2 °F 74.5 °F 68% 29.92 in 10.0 mi ESE 5.8 mph - N/A   Scattered Clouds
8:30 PM 85.1 °F 93.7 °F 75.2 °F 72% 29.92 in 10.0 mi ESE 4.6 mph - N/A   Clear
8:50 PM 84.7 °F 92.8 °F 75.0 °F 72% 29.92 in 10.0 mi SE 3.5 mph - N/A   Clear
9:10 PM 84.2 °F 91.9 °F 74.8 °F 73% 29.93 in 10.0 mi SSE 3.5 mph - N/A   Clear
9:30 PM 83.8 °F 90.8 °F 73.8 °F 72% 29.93 in 10.0 mi SSE 5.8 mph - N/A   Clear
9:50 PM 83.5 °F 90.0 °F 73.6 °F 72% 29.94 in 10.0 mi Calm Calm - N/A   Clear
10:10 PM 83.1 °F 89.5 °F 73.8 °F 73% 29.94 in 10.0 mi SE 4.6 mph - N/A   Clear
10:30 PM 82.6 °F 88.8 °F 74.1 °F 75% 29.95 in 10.0 mi SSE 4.6 mph - N/A   Clear
10:50 PM 82.4 °F 89.0 °F 74.5 °F 77% 29.96 in 10.0 mi Calm Calm - N/A   Clear
11:10 PM 81.9 °F 88.2 °F 74.8 °F 79% 29.95 in 10.0 mi SSE 3.5 mph - N/A   Clear
11:30 PM 81.5 °F 87.8 °F 75.0 °F 81% 29.95 in 10.0 mi SSE 3.5 mph - N/A   Clear
11:50 PM 81.3 °F 87.6 °F 75.2 °F 82% 29.95 in 10.0 mi Calm Calm - N/A   Clear